Tracking 26325 objects as of 28-Nov-2022
HD Live streaming from Space Station
objects crossing your sky now

WESTFORD NEEDLES

Track WESTFORD NEEDLES now!
10-day predictions
WESTFORD NEEDLES is classified as:


NORAD ID: 19109
Int'l Code: 1963-014EJ
Perigee: 3,406.5 km
Apogee: 3,849.3 km
Inclination: 87.4 °
Period: 165.8 minutes
Semi major axis: 9998 km
RCS: 0.124 m2 (medium)
Launch date: May 9, 1963
Source: United States (US)
Launch site: AIR FORCE WESTERN TEST RANGE (AFWTR)
aabbcc
Your satellite tracking list
Your tracking list is empty




NASA's NSSDC Master Catalog

Two Line Element Set (TLE):
1 19109U 63014EJ  22331.61767269 -.00000186  00000-0 -83590-1 0  9992
2 19109  87.3599 200.5815 0221423 255.5421 102.0773  8.68303322345638
Source of the keplerian elements: AFSPC